This is the latest recevied weather packets stored in our database for station/object CRYC. If no packets are shown the sender has not sent any weather packets the latest 1 day(s).
| Time | Temp. | Humidity | Pressure | Rain* | Wind** | Luminosity | Snow |
|---|---|---|---|---|---|---|---|
| 1836274222 | 20.56° C | - | - | 0 mm | 0 m/s | - | - |
| 1836274117 | 20.56° C | - | - | 0 mm | 0 m/s | - | - |
| 1778052313 | 18.33° C | - | - | 0 mm | 4.47 m/s, 260° | - | - |
| 1778051715 | 18.33° C | - | - | 0 mm | 4.92 m/s, 249° | - | - |
| 1778051105 | 18.33° C | - | - | 0 mm | 3.13 m/s, 283° | - | - |
| 1778050503 | 18.89° C | - | - | 0 mm | 2.24 m/s, 42° | - | - |
| 1778049294 | 18.89° C | - | - | 0 mm | 2.68 m/s, 224° | - | - |
| 1778048685 | 18.89° C | - | - | 0 mm | 3.58 m/s, 249° | - | - |
| 1778048078 | 19.44° C | - | - | 0 mm | 4.47 m/s, 248° | - | - |
| 1778046862 | 19.44° C | - | - | 0 mm | 3.58 m/s, 245° | - | - |
| 1778046258 | 19.44° C | - | - | 0 mm | 5.81 m/s, 226° | - | - |
| 1778045654 | 20° C | - | - | 0 mm | 4.47 m/s, 224° | - | - |
| 1778045050 | 20° C | - | - | 0 mm | 3.13 m/s, 219° | - | - |
| 1778043841 | 20° C | - | - | 0 mm | 3.58 m/s, 226° | - | - |
| 1778043231 | 20° C | - | - | 0 mm | 3.13 m/s, 259° | - | - |
| 1778042624 | 19.44° C | - | - | 0 mm | 2.24 m/s, 179° | - | - |
| 1778042020 | 19.44° C | - | - | 0 mm | 2.24 m/s, 255° | - | - |
| 1778041416 | 19.44° C | - | - | 0 mm | 2.24 m/s, 252° | - | - |
| 1778040805 | 19.44° C | - | - | 0 mm | 2.24 m/s, 205° | - | - |
| 1778039596 | 19.44° C | - | - | 0 mm | 0.89 m/s, 219° | - | - |
| 1778038991 | 19.44° C | - | - | 0 mm | 1.79 m/s, 188° | - | - |
| 1778038387 | 19.44° C | - | - | 0 mm | 2.24 m/s, 224° | - | - |
| 1778037777 | 19.44° C | - | - | 0 mm | 0.89 m/s, 233° | - | - |
| 1778037174 | 19.44° C | - | - | 0 mm | 2.68 m/s, 243° | - | - |
| 1778035363 | 20° C | - | - | 0 mm | 0.89 m/s, 236° | - | - |
* Rain latest hour (hover to see other rain measurements)
** Current wind speed in m/s (hover to see current wind gust speed)